• în România
  • Lista ţărilor
  • Pe 7 zile
  • Temperatura apei
  • Hartă satelitară
  • Meteo pe hartă
  • Widget-uri
  • user-avatar
    Intrare

    Meteo pe oră la Volnaya Vershina

    Astăzi, 21 Iulie, Sâmbătă

    Timp Temperatura Precipitaţii Vânt Presiune Umiditate
    00:00 +19°C° 0 mm 2 m/s 740 mmHg 93%
    01:00 +19°C° 0 mm 2 m/s 740 mmHg 93%
    02:00 +19°C° 0 mm 1 m/s 740 mmHg 93%
    03:00 +19°C° 0 mm 1 m/s 740 mmHg 95%
    04:00 +18°C° 0 mm 2 m/s 740 mmHg 94%
    05:00 +19°C° 0 mm 2 m/s 740 mmHg 93%
    06:00 +19°C° 0 mm 2 m/s 740 mmHg 93%
    07:00 +21°C° 0 mm 2 m/s 740 mmHg 87%
    08:00 +23°C° 0 mm 2 m/s 740 mmHg 82%
    09:00 +24°C° 0 mm 2 m/s 740 mmHg 76%
    10:00 +25°C° 0,1 mm 2 m/s 740 mmHg 73%
    11:00 +26°C° 0,1 mm 2 m/s 740 mmHg 69%
    12:00 +27°C° 0,1 mm 2 m/s 739 mmHg 65%
    13:00 +28°C° 0,7 mm 2 m/s 739 mmHg 64%
    14:00 +28°C° 0,7 mm 2 m/s 739 mmHg 63%
    15:00 +28°C° 0,7 mm 2 m/s 739 mmHg 62%
    16:00 +28°C° 0,5 mm 2 m/s 739 mmHg 65%
    17:00 +28°C° 0,5 mm 2 m/s 739 mmHg 68%
    18:00 +28°C° 0,5 mm 2 m/s 739 mmHg 71%
    19:00 +26°C° 0,4 mm 2 m/s 739 mmHg 76%
    20:00 +24°C° 0,4 mm 2 m/s 739 mmHg 81%
    21:00 +23°C° 0,4 mm 2 m/s 740 mmHg 87%
    22:00 +21°C° 0 mm 2 m/s 740 mmHg 89%
    23:00 +21°C° 0 mm 2 m/s 740 mmHg 91%

    Mâine, 22 Iulie, Duminică

    Timp Temperatura Precipitaţii Vânt Presiune Umiditate
    00:00 +20°C° 0 mm 2 m/s 740 mmHg 93%
    01:00 +20°C° 0 mm 2 m/s 740 mmHg 94%
    02:00 +20°C° 0 mm 2 m/s 740 mmHg 95%
    03:00 +19°C° 0 mm 2 m/s 740 mmHg 96%
    04:00 +20°C° 0 mm 3 m/s 740 mmHg 95%
    05:00 +20°C° 0 mm 3 m/s 740 mmHg 94%
    06:00 +20°C° 0 mm 3 m/s 740 mmHg 94%
    07:00 +21°C° 0 mm 3 m/s 740 mmHg 90%
    08:00 +22°C° 0 mm 3 m/s 740 mmHg 86%
    09:00 +24°C° 0 mm 3 m/s 740 mmHg 82%
    10:00 +25°C° 0,2 mm 4 m/s 740 mmHg 79%
    11:00 +26°C° 0,2 mm 4 m/s 740 mmHg 77%
    12:00 +27°C° 0,2 mm 5 m/s 740 mmHg 74%
    13:00 +27°C° 1,3 mm 5 m/s 740 mmHg 75%
    14:00 +27°C° 1,3 mm 5 m/s 740 mmHg 76%
    15:00 +26°C° 1,3 mm 5 m/s 740 mmHg 77%
    16:00 +26°C° 0,2 mm 5 m/s 740 mmHg 80%
    17:00 +25°C° 0,2 mm 5 m/s 740 mmHg 82%
    18:00 +23°C° 0,2 mm 5 m/s 740 mmHg 85%
    19:00 +23°C° 0 mm 5 m/s 740 mmHg 87%
    20:00 +22°C° 0 mm 5 m/s 741 mmHg 89%
    21:00 +21°C° 0 mm 5 m/s 741 mmHg 90%
    22:00 +21°C° 0,1 mm 5 m/s 741 mmHg 92%
    23:00 +21°C° 0,1 mm 4 m/s 741 mmHg 93%

    Poimâine, 23 Iulie, Luni

    Timp Temperatura Precipitaţii Vânt Presiune Umiditate
    00:00 +20°C° 0,1 mm 4 m/s 741 mmHg 94%
    01:00 +20°C° 0,5 mm 4 m/s 741 mmHg 94%
    02:00 +20°C° 0,5 mm 4 m/s 741 mmHg 95%
    03:00 +19°C° 0,5 mm 4 m/s 741 mmHg 96%
    04:00 +19°C° 0,3 mm 4 m/s 741 mmHg 95%
    05:00 +20°C° 0,3 mm 4 m/s 741 mmHg 95%
    06:00 +20°C° 0,3 mm 4 m/s 741 mmHg 94%
    07:00 +21°C° 0,1 mm 4 m/s 741 mmHg 91%
    08:00 +22°C° 0,1 mm 4 m/s 741 mmHg 88%
    09:00 +23°C° 0,1 mm 4 m/s 741 mmHg 85%
    10:00 +25°C° 1,4 mm 4 m/s 742 mmHg 80%
    11:00 +26°C° 1,4 mm 4 m/s 742 mmHg 75%
    12:00 +27°C° 1,4 mm 5 m/s 742 mmHg 71%
    13:00 +27°C° 1,1 mm 5 m/s 742 mmHg 71%
    14:00 +27°C° 1,1 mm 5 m/s 742 mmHg 72%
    15:00 +27°C° 1,1 mm 5 m/s 742 mmHg 72%
    16:00 +27°C° 0,9 mm 5 m/s 742 mmHg 76%
    17:00 +26°C° 0,9 mm 4 m/s 742 mmHg 80%
    18:00 +25°C° 0,9 mm 4 m/s 742 mmHg 84%
    19:00 +23°C° 0,1 mm 4 m/s 743 mmHg 85%
    20:00 +22°C° 0,1 mm 4 m/s 743 mmHg 87%
    21:00 +22°C° 0,1 mm 4 m/s 743 mmHg 88%
    22:00 +21°C° 0,8 mm 4 m/s 743 mmHg 89%
    23:00 +20°C° 0,8 mm 5 m/s 743 mmHg 89%

    24 Iulie, Marţi

    Timp Temperatura Precipitaţii Vânt Presiune Umiditate
    00:00 +20°C° 0,8 mm 5 m/s 743 mmHg 90%
    01:00 +19°C° 0,6 mm 4 m/s 743 mmHg 90%
    02:00 +19°C° 0,6 mm 4 m/s 744 mmHg 91%
    03:00 +19°C° 0,6 mm 4 m/s 744 mmHg 92%
    04:00 +19°C° 0,2 mm 4 m/s 744 mmHg 90%
    05:00 +19°C° 0,2 mm 4 m/s 744 mmHg 89%
    06:00 +19°C° 0,2 mm 4 m/s 744 mmHg 87%
    07:00 +20°C° 0 mm 5 m/s 744 mmHg 82%
    08:00 +21°C° 0 mm 5 m/s 744 mmHg 78%
    09:00 +22°C° 0 mm 5 m/s 745 mmHg 73%
    10:00 +23°C° 0 mm 5 m/s 745 mmHg 70%
    11:00 +24°C° 0 mm 6 m/s 745 mmHg 67%
    12:00 +26°C° 0 mm 6 m/s 745 mmHg 64%
    13:00 +26°C° 0 mm 6 m/s 745 mmHg 64%
    14:00 +27°C° 0 mm 6 m/s 745 mmHg 65%
    15:00 +27°C° 0 mm 6 m/s 746 mmHg 65%
    16:00 +26°C° 0,2 mm 5 m/s 746 mmHg 67%
    17:00 +26°C° 0,2 mm 5 m/s 746 mmHg 69%
    18:00 +25°C° 0,2 mm 4 m/s 746 mmHg 71%
    19:00 +23°C° 0 mm 4 m/s 746 mmHg 68%
    20:00 +22°C° 0 mm 4 m/s 746 mmHg 66%
    21:00 +21°C° 0 mm 5 m/s 747 mmHg 63%
    22:00 +21°C° 0 mm 4 m/s 747 mmHg 65%
    23:00 +20°C° 0 mm 4 m/s 747 mmHg 67%

    25 Iulie, Miercuri

    Timp Temperatura Precipitaţii Vânt Presiune Umiditate
    00:00 +19°C° 0 mm 4 m/s 747 mmHg 69%
    01:00 +19°C° 0 mm 4 m/s 747 mmHg 70%
    02:00 +19°C° 0 mm 4 m/s 747 mmHg 71%
    03:00 +19°C° 0 mm 4 m/s 747 mmHg 71%
    04:00 +19°C° 0 mm 4 m/s 747 mmHg 73%
    05:00 +19°C° 0 mm 4 m/s 748 mmHg 74%
    06:00 +19°C° 0 mm 4 m/s 748 mmHg 75%
    07:00 +19°C° 0 mm 5 m/s 748 mmHg 73%
    08:00 +20°C° 0 mm 5 m/s 748 mmHg 71%
    09:00 +20°C° 0 mm 5 m/s 748 mmHg 70%
    10:00 +21°C° 0 mm 5 m/s 749 mmHg 68%
    11:00 +22°C° 0 mm 5 m/s 749 mmHg 67%
    12:00 +23°C° 0 mm 6 m/s 749 mmHg 65%
    13:00 +24°C° 0 mm 6 m/s 749 mmHg 62%
    14:00 +26°C° 0 mm 6 m/s 749 mmHg 59%
    15:00 +27°C° 0 mm 6 m/s 749 mmHg 56%
    16:00 +26°C° 0 mm 6 m/s 749 mmHg 59%
    17:00 +26°C° 0 mm 5 m/s 749 mmHg 63%
    18:00 +26°C° 0 mm 4 m/s 749 mmHg 66%
    19:00 +23°C° 0 mm 4 m/s 749 mmHg 68%
    20:00 +22°C° 0 mm 4 m/s 749 mmHg 70%
    21:00 +20°C° 0 mm 4 m/s 750 mmHg 72%
    22:00 +20°C° 0 mm 4 m/s 749 mmHg 70%
    23:00 +19°C° 0 mm 4 m/s 749 mmHg 69%

    26 Iulie, Joi

    Timp Temperatura Precipitaţii Vânt Presiune Umiditate
    00:00 +19°C° 0 mm 4 m/s 749 mmHg 68%
    01:00 +19°C° 0 mm 4 m/s 750 mmHg 65%
    02:00 +20°C° 0 mm 4 m/s 750 mmHg 62%
    03:00 +20°C° 0 mm 5 m/s 750 mmHg 59%
    04:00 +20°C° 0 mm 5 m/s 750 mmHg 63%
    05:00 +20°C° 0 mm 5 m/s 750 mmHg 67%
    06:00 +20°C° 0 mm 5 m/s 750 mmHg 70%
    07:00 +21°C° 0 mm 6 m/s 750 mmHg 70%
    08:00 +23°C° 0 mm 6 m/s 750 mmHg 70%
    09:00 +24°C° 0 mm 7 m/s 750 mmHg 69%
    10:00 +26°C° 0 mm 7 m/s 750 mmHg 67%
    11:00 +27°C° 0 mm 6 m/s 750 mmHg 66%
    12:00 +28°C° 0 mm 6 m/s 750 mmHg 64%
    13:00 +28°C° 0 mm 6 m/s 750 mmHg 62%
    14:00 +29°C° 0 mm 5 m/s 750 mmHg 61%
    15:00 +29°C° 0 mm 5 m/s 750 mmHg 59%
    16:00 +29°C° 0 mm 5 m/s 750 mmHg 62%
    17:00 +29°C° 0 mm 4 m/s 750 mmHg 64%
    18:00 +29°C° 0 mm 4 m/s 750 mmHg 66%
    19:00 +28°C° 0 mm 4 m/s 750 mmHg 69%
    20:00 +26°C° 0 mm 4 m/s 750 mmHg 72%
    21:00 +25°C° 0 mm 5 m/s 751 mmHg 76%
    22:00 +23°C° 0 mm 5 m/s 751 mmHg 75%
    23:00 +23°C° 0 mm 5 m/s 751 mmHg 75%
    Arată mai mult